Cloud_Cover
100 100 100 100 100 97 28 37 16 5 30 5 5 10 4 7 3 0 0 0 0 0 0 0 0 0 0 0 0 0 0 0 0 0 0 0 0 0 0 0 0 0 0
100 100 100 100 90 34 44 7 6 9 5 5 5 6 31 6 4 5 0 0 0 0 0 0 0 0 0 0 0 0 0 0 0 0 0 0 2 4 2 0 0 0 0
100 90 63 66 5 10 13 8 6 5 5 5 3 5 0 0 5 0 5 0 0 0 0 0 0 0 0 0 0 0 0 0 0 5 5 5 5 5 3 5 0 0 0
78 71 29 57 79 69 7 5 5 5 3 0 5 5 1 5 5 5 2 0 0 0 0 0 0 0 0 0 0 0 4 4 5 5 6 5 5 5 5 4 4 5 4
58 48 14 20 39 91 22 5 5 0 0 5 5 5 5 4 5 5 0 0 0 0 0 0 0 0 0 0 4 5 5 5 5 15 100 99 71 10 5 5 15 5 5
63 8 71 100 99 8 5 3 0 0 1 5 5 5 29 5 5 5 0 0 0 0 0 0 0 0 0 0 2 5 35 42 94 100 96 100 98 69 8 27 5 5 57
27 95 96 98 13 5 5 2 5 0 5 7 59 100 6 5 5 0 0 0 1 0 0 0 0 0 0 0 0 5 4 20 99 100 100 85 92 63 81 72 92 96 100
98 100 77 5 5 5 6 11 5 5 9 89 53 36 5 5 3 0 0 0 1 2 0 0 0 0 0 5 8 5 76 90 35 95 100 100 100 100 100 100 100 100 100
66 82 41 5 6 35 14 5 5 45 100 71 90 8 5 5 0 0 0 4 5 5 4 4 1 4 5 97 91 100 29 85 55 38 79 100 100 89 100 100 100 100 100
72 17 61 54 87 5 5 7 100 100 95 33 17 10 5 5 0 5 5 5 5 5 5 5 5 43 100 100 100 100 98 21 6 58 64 5 5 5 71 97 100 100 100
57 34 95 84 19 5 5 22 100 100 70 100 96 7 5 5 4 4 5 5 5 5 5 18 12 76 100 100 100 98 17 93 82 6 5 5 5 5 5 13 73 100 100
29 98 83 26 50 63 89 100 95 99 100 100 71 16 5 5 4 1 5 5 28 71 61 65 6 80 100 100 100 66 95 100 31 5 5 5 12 74 37 5 6 71 100
14 40 12 91 79 99 100 100 100 100 100 81 43 5 5 5 5 2 5 21 69 95 74 27 98 100 100 76 6 5 68 6 5 31 20 78 61 16 5 48 73 100 100
24 52 95 100 100 100 100 100 100 100 100 83 5 5 5 5 5 5 5 5 10 40 48 13 33 51 90 91 10 1 3 5 8 53 75 98 45 9 89 96 100 100 100
58 100 100 100 100 100 100 100 100 100 38 12 5 5 5 5 5 5 56 73 5 5 26 87 100 93 15 5 5 16 5 5 5 6 79 48 89 100 98 85 100 100 100
99 98 100 100 100 100 52 72 97 50 35 63 73 85 84 79 90 100 100 100 100 100 100 100 80 12 42 5 9 17 5 5 6 53 63 100 100 100 100 100 100 100 100
100 100 99 100 100 100 100 80 98 100 100 100 100 100 100 100 100 100 100 100 100 100 100 100 62 65 100 89 82 5 5 5 35 100 100 100 100 100 100 100 100 100 100
92 94 100 100 100 95 80 98 100 100 100 100 100 100 100 100 100 100 100 100 100 100 100 100 100 100 100 31 92 68 5 71 70 100 97 94 100 100 100 100 100 100 100
100 100 100 97 100 100 98 100 100 100 100 100 100 100 100 100 100 100 100 100 100 100 100 98 100 100 100 100 69 89 5 100 92 100 96 100 100 100 100 100 100 100 100
100 100 88 100 100 100 94 100 100 100 100 100 100 100 100 100 98 100 100 85 73 73 99 100 100 100 100 94 99 55 12 98 84 71 77 71 100 100 100 100 100 100 100
96 68 100 85 97 100 100 100 100 100 100 100 100 100 100 100 100 100 29 18 61 10 59 100 100 100 100 100 100 39 66 100 75 81 51 62 100 100 100 100 100 100 100
98 100 100 100 100 100 95 97 100 84 93 100 100 93 63 45 24 68 93 100 100 100 100 100 100 100 100 100 100 65 100 100 86 83 65 93 100 100 100 100 100 100 100
100 100 100 100 97 99 100 100 78 56 70 89 35 5 5 5 5 5 5 7 94 100 100 100 100 100 100 100 100 82 100 92 79 100 97 100 100 100 100 100 100 100 100
20 27 83 97 93 68 50 23 77 100 100 61 5 5 5 5 5 5 40 78 82 100 100 100 100 100 100 100 100 100 100 94 96 99 82 100 100 100 100 100 100 100 100
88 82 40 22 16 11 5 5 5 8 5 5 5 40 14 46 74 80 85 68 67 97 100 100 100 100 100 100 100 100 100 100 98 81 18 14 100 96 100 100 100 96 87
8 8 19 7 5 24 48 48 21 21 28 5 5 22 90 99 71 85 67 62 71 98 100 100 100 100 100 100 100 100 100 99 90 65 78 100 100 100 100 99 85 99 74